Wind_Speed
25 25 25 26 28 30 31 31 32 31 30 29 29 28 27 28 27 26 25 25 26 25 25 25 26 26 26 26 27 27 27 27 26 26 25 25 25 25 25 25 25 24 24 23
24 25 27 28 28 29 30 31 32 32 31 30 29 28 28 27 27 26 26 27 28 27 27 27 27 27 27 26 26 26 27 28 27 26 24 24 26 26 26 26 26 25 25 25
25 26 27 28 28 29 30 31 30 29 29 29 28 28 28 27 27 27 27 27 27 27 28 28 28 28 27 27 27 27 27 27 27 26 25 25 25 26 27 27 27 26 26 26
26 26 28 27 28 28 29 30 30 30 30 29 29 28 28 28 28 27 27 26 27 27 27 26 27 27 26 26 27 26 26 26 26 26 25 25 25 25 25 26 27 26 26 26
26 28 28 27 27 28 28 29 29 29 29 29 29 28 27 27 27 26 26 26 26 26 26 26 26 26 26 26 26 26 25 25 26 26 26 25 25 26 25 25 25 26 26 27
27 27 27 27 27 27 28 28 27 27 28 28 29 28 26 27 27 27 27 27 26 25 25 25 25 25 25 25 25 25 24 24 24 25 25 26 26 26 26 25 24 25 26 27
26 27 27 26 26 26 26 26 25 25 26 26 28 28 27 27 27 27 26 25 25 24 24 24 25 24 23 23 22 22 22 22 23 24 25 24 25 26 26 25 24 25 25 26
25 26 25 25 25 26 25 25 25 24 25 25 26 27 27 26 25 25 25 25 24 24 23 24 23 23 23 23 23 22 22 22 23 23 24 24 25 25 25 25 24 25 25 25
24 24 23 23 24 24 24 24 25 24 25 25 26 27 26 25 25 25 25 25 24 23 23 23 24 24 24 24 25 24 23 23 24 24 24 24 24 24 24 24 25 25 26 25
23 23 24 24 24 24 24 24 25 25 25 26 25 25 26 25 25 25 25 25 24 24 24 24 25 26 25 25 25 24 24 24 25 25 24 23 23 23 24 24 25 25 25 25
22 23 23 23 24 24 24 25 25 25 26 26 26 26 26 27 26 26 26 26 25 25 25 26 26 26 26 26 25 25 26 27 26 24 24 24 24 23 24 24 24 24 24 25
22 22 23 23 24 25 24 24 25 26 26 27 27 26 26 26 26 27 27 27 26 25 26 27 26 25 25 25 26 26 26 25 24 24 24 24 24 23 24 24 23 23 23 24
23 22 22 23 24 25 25 25 25 25 25 26 26 25 26 26 27 27 27 27 27 27 26 26 26 25 24 24 24 24 25 24 24 24 24 24 24 23 24 24 24 23 22 22
22 22 22 22 23 24 24 24 24 23 24 24 24 24 25 25 26 27 27 27 27 26 26 25 25 24 23 23 23 22 23 23 23 23 24 23 23 24 23 24 24 24 23 23
22 22 22 22 23 23 22 23 23 23 23 22 22 23 23 23 23 24 24 24 24 24 24 24 24 23 23 23 22 22 22 23 23 23 23 23 23 23 23 23 24 23 23 24
20 21 21 22 22 23 22 22 23 22 22 21 21 22 22 23 23 22 22 21 22 23 22 22 22 22 22 22 21 21 22 22 22 22 22 22 22 22 22 22 23 23 23 24
19 19 20 20 21 22 23 22 22 22 22 21 21 22 23 22 22 21 21 21 21 21 22 22 21 21 22 22 22 22 22 22 22 21 22 21 21 21 21 22 22 23 23 24
18 18 19 19 20 21 21 21 21 21 20 19 20 21 22 21 21 21 22 22 21 20 21 20 21 21 21 21 21 21 21 21 21 21 21 21 21 22 21 22 22 22 23 23
19 19 19 19 19 19 20 21 21 21 22 22 21 20 19 20 20 21 21 21 21 20 20 20 20 19 19 20 20 21 20 20 20 20 20 20 21 21 22 21 21 21 21 22
18 18 18 19 18 18 19 20 20 21 21 21 20 19 20 20 20 19 19 20 20 20 20 19 19 19 20 21 21 21 21 21 20 20 19 19 20 20 21 21 21 21 21 21
17 18 18 18 18 19 19 20 21 21 21 20 20 20 20 20 20 19 19 20 19 20 20 19 19 19 20 21 21 20 20 20 20 20 20 20 20 20 21 21 21 21 21 21
17 17 18 19 19 20 20 20 21 21 21 21 20 20 21 20 20 19 18 19 19 19 19 19 20 20 20 19 19 19 19 19 20 20 20 20 20 20 21 21 21 21 20 19
17 18 19 19 20 20 20 21 20 21 21 21 20 20 20 20 20 19 18 19 19 19 19 19 19 19 19 19 19 19 19 19 20 20 20 20 20 20 20 20 20 19 19 19
17 18 19 19 19 19 20 20 21 20 19 19 19 19 19 19 18 18 18 17 18 18 18 19 19 18 18 18 19 20 20 20 20 20 20 19 19 19 19 19 19 19 20 20
16 16 17 18 18 19 19 19 19 19 18 18 18 18 18 17 17 16 16 16 16 17 17 18 18 18 18 19 19 19 20 20 20 19 19 19 19 19 19 20 20 20 21 21
16 16 16 16 17 18 18 18 18 16 16 16 17 16 16 16 16 16 16 16 16 16 17 17 17 16 17 17 18 18 18 18 18 18 18 19 19 20 20 20 20 20 21 21
15 15 16 16 16 17 16 16 15 15 15 14 13 13 13 13 14 14 14 14 15 15 16 16 15 15 16 16 16 16 16 16 16 17 17 18 19 20 20 20 20 21 21 20
Wind_Direction
256 257 259 261 262 262 263 265 266 267 269 269 267 267 265 265 266 267 268 269 266 266 270 273 274 274 274 273 271 271 271 270 272 273 274 270 269 269 270 270 271 271 272 272
258 258 259 260 262 263 264 265 266 267 268 268 268 266 264 265 266 266 268 271 270 271 274 275 275 276 276 276 273 271 272 270 270 272 272 271 270 269 270 270 269 269 270 271
260 262 263 261 263 264 263 263 265 266 267 266 266 268 269 268 269 269 270 270 269 272 274 274 275 276 275 274 273 272 272 270 268 273 273 271 269 268 269 269 267 268 269 270
264 263 264 267 266 265 264 263 264 264 266 266 267 268 269 269 269 269 268 267 271 273 274 273 274 275 273 272 269 269 271 269 268 270 271 271 270 271 271 271 270 268 268 270
266 265 266 268 267 266 264 264 265 266 266 267 267 266 268 270 270 270 269 269 271 273 274 274 273 272 273 272 270 271 272 270 269 268 267 268 268 270 270 273 272 269 268 268
267 267 268 270 268 266 265 265 267 268 267 266 266 267 267 267 269 269 269 270 271 272 274 272 270 270 272 273 271 272 273 272 270 269 269 269 269 268 269 272 272 269 267 267
268 269 271 272 270 268 267 268 268 268 267 266 267 268 267 264 266 268 268 269 270 271 273 270 268 268 271 272 271 271 270 271 272 271 273 273 271 270 270 271 270 267 267 267
268 269 271 271 270 268 268 267 267 267 268 268 266 267 266 263 263 266 266 268 269 270 271 269 268 269 270 270 270 270 270 271 272 273 274 274 275 275 273 271 269 268 267 268
268 268 269 270 271 269 268 268 268 268 269 267 266 265 266 264 260 263 266 267 269 269 268 267 267 269 269 270 271 271 271 271 272 273 274 275 277 278 276 273 273 271 268 267
265 265 267 270 270 270 270 269 267 267 269 267 267 265 265 263 259 260 263 264 266 267 267 268 268 268 269 270 269 269 269 271 272 272 274 275 276 276 277 277 275 271 269 266
269 268 269 271 272 271 271 270 268 268 270 270 271 268 266 262 259 259 260 261 264 265 265 267 268 267 268 268 268 267 269 273 272 270 271 273 275 275 276 278 277 273 270 268
273 273 272 272 271 269 270 269 268 270 270 270 271 271 270 266 261 260 259 259 261 263 263 263 264 265 265 265 267 267 269 268 268 269 271 271 272 273 275 277 278 276 276 273
276 276 275 273 271 269 270 270 271 272 272 272 271 271 272 266 262 261 261 261 261 262 262 263 261 262 265 265 265 266 267 265 267 270 271 271 270 271 274 276 278 277 276 276
278 278 277 277 276 272 269 271 272 273 273 272 272 272 270 267 264 263 262 263 262 262 261 262 262 263 266 267 266 266 266 267 269 271 274 274 273 273 273 275 276 276 275 274
276 277 277 276 275 275 273 272 272 275 276 274 274 273 270 268 267 265 262 262 263 263 262 263 263 264 266 267 266 267 269 271 272 273 274 275 274 274 274 275 276 276 274 272
276 277 278 277 275 274 275 277 276 277 278 277 275 273 272 270 267 263 261 264 265 265 267 267 267 268 269 270 270 270 273 273 273 273 274 274 274 274 275 276 276 275 274 273
277 277 278 279 278 276 275 277 277 277 278 277 274 272 273 271 266 262 263 265 267 268 269 268 267 267 269 270 270 270 271 272 272 272 272 273 273 274 277 277 276 273 274 273
280 280 281 284 281 279 278 277 277 278 280 279 277 274 271 268 265 265 266 265 266 267 266 266 267 268 268 269 270 270 271 270 270 272 273 272 272 274 277 278 277 275 275 274
280 279 281 286 287 283 281 280 280 280 280 281 281 277 272 270 269 268 266 261 261 264 264 263 265 266 268 269 269 269 270 270 270 272 273 274 273 273 274 276 277 277 277 276
279 278 281 285 289 288 285 284 283 282 282 279 277 276 271 271 271 268 262 260 260 261 261 261 262 264 267 269 270 270 270 271 271 272 274 275 276 275 275 276 278 280 279 278
281 280 282 285 289 291 290 286 285 284 283 280 275 273 272 272 272 271 265 261 260 260 260 261 262 264 266 268 269 270 270 271 273 274 275 276 277 277 279 281 282 284 283 281
280 280 283 287 290 291 291 289 287 284 282 280 276 274 274 273 272 270 267 262 261 260 260 262 263 264 264 266 268 270 271 272 273 275 274 275 277 279 281 283 283 284 284 284
285 284 285 287 290 291 292 292 290 287 284 280 278 276 276 274 270 269 267 264 262 261 263 264 264 263 264 266 267 269 271 272 274 275 273 273 276 280 282 284 283 284 286 286
292 289 287 287 289 291 292 293 293 291 287 283 282 279 277 273 269 268 266 263 262 262 263 265 265 264 264 266 267 269 271 273 273 272 272 273 275 279 282 284 286 288 289 289
294 293 291 291 291 291 291 292 293 292 286 282 281 280 276 273 271 268 265 261 261 262 263 265 266 266 267 267 269 271 271 271 270 271 273 274 276 279 282 284 285 287 289 289
296 296 296 295 294 294 294 294 293 291 290 288 286 283 277 274 273 269 267 266 265 263 262 262 263 265 268 269 270 271 271 271 270 271 273 275 276 280 284 284 286 288 289 288
296 296 296 296 295 296 296 296 295 294 293 292 290 285 281 276 271 269 268 267 268 266 264 264 265 266 268 267 267 269 271 273 272 272 275 278 279 283 285 285 287 289 289 287
Height
5787 5788 5789 5790 5790 5791 5792 5792 5793 5794 5795 5796 5797 5798 5798 5799 5800 5800 5801 5801 5802 5802 5803 5803 5803 5803 5803 5803 5803 5802 5802 5803 5803 5804 5804 5804 5805 5805 5805 5806 5806 5806 5806 5806
5780 5781 5782 5782 5783 5784 5785 5785 5786 5787 5788 5789 5789 5790 5791 5791 5793 5793 5794 5794 5794 5795 5795 5795 5795 5795 5795 5795 5795 5795 5795 5795 5795 5796 5796 5797 5797 5797 5797 5798 5798 5798 5798 5798
5774 5774 5774 5775 5776 5777 5777 5778 5779 5779 5781 5781 5782 5782 5783 5784 5785 5786 5786 5786 5787 5787 5787 5787 5787 5787 5787 5787 5787 5787 5787 5787 5788 5788 5789 5788 5788 5789 5789 5789 5790 5790 5791 5791
5766 5768 5767 5771 5769 5769 5770 5771 5771 5772 5773 5773 5774 5775 5775 5776 5777 5778 5778 5779 5779 5779 5779 5779 5779 5778 5778 5779 5779 5779 5779 5779 5780 5780 5781 5780 5780 5781 5781 5781 5781 5781 5782 5783
5759 5759 5760 5762 5762 5762 5762 5763 5764 5765 5766 5766 5766 5768 5769 5769 5769 5770 5770 5771 5771 5771 5771 5771 5771 5771 5771 5771 5771 5771 5771 5771 5772 5772 5772 5772 5773 5773 5772 5772 5772 5772 5773 5774
5752 5752 5753 5755 5755 5754 5756 5756 5757 5757 5758 5758 5759 5760 5762 5762 5762 5762 5762 5763 5762 5762 5763 5763 5763 5763 5763 5763 5763 5763 5763 5764 5764 5764 5764 5764 5764 5764 5764 5763 5763 5764 5764 5765
5745 5745 5746 5747 5747 5747 5749 5750 5749 5749 5750 5750 5751 5752 5753 5753 5754 5754 5754 5755 5755 5755 5754 5754 5754 5755 5755 5756 5756 5756 5756 5757 5757 5757 5757 5756 5756 5756 5756 5755 5755 5755 5756 5756
5738 5738 5741 5739 5739 5740 5741 5741 5741 5742 5742 5743 5743 5744 5744 5745 5745 5746 5746 5747 5747 5747 5746 5746 5746 5747 5748 5749 5749 5749 5749 5749 5749 5749 5748 5748 5748 5748 5748 5748 5747 5747 5748 5748
5732 5734 5733 5732 5732 5732 5733 5734 5734 5735 5735 5735 5736 5736 5737 5737 5737 5738 5739 5739 5739 5739 5739 5738 5739 5739 5740 5740 5741 5741 5741 5741 5741 5741 5741 5741 5741 5741 5741 5740 5740 5740 5740 5740
5725 5725 5725 5726 5725 5726 5726 5727 5727 5727 5728 5728 5728 5728 5729 5729 5730 5730 5731 5731 5732 5731 5732 5732 5731 5732 5732 5732 5733 5733 5733 5734 5734 5734 5734 5734 5734 5734 5733 5733 5732 5732 5732 5732
5718 5719 5719 5719 5719 5719 5719 5719 5720 5720 5720 5720 5720 5720 5721 5721 5721 5722 5723 5723 5724 5724 5724 5724 5724 5724 5724 5725 5725 5725 5726 5726 5726 5726 5726 5727 5726 5726 5726 5726 5725 5724 5724 5724
5713 5713 5713 5713 5712 5712 5712 5712 5712 5712 5713 5712 5712 5712 5712 5713 5713 5714 5714 5715 5715 5715 5716 5716 5716 5716 5716 5716 5717 5718 5718 5717 5718 5718 5718 5718 5719 5719 5718 5718 5717 5717 5716 5716
5706 5706 5706 5706 5706 5706 5706 5706 5705 5705 5705 5705 5705 5704 5704 5704 5705 5705 5706 5706 5707 5707 5707 5707 5708 5708 5709 5708 5709 5709 5710 5710 5710 5711 5711 5711 5710 5711 5711 5710 5710 5709 5709 5709
5700 5700 5700 5700 5700 5699 5699 5699 5699 5698 5698 5698 5697 5697 5697 5696 5697 5697 5698 5698 5698 5699 5699 5699 5700 5701 5701 5701 5701 5702 5702 5703 5703 5703 5703 5703 5703 5703 5703 5703 5702 5701 5701 5701
5693 5694 5694 5694 5693 5693 5693 5692 5692 5692 5691 5691 5690 5690 5690 5689 5690 5690 5690 5690 5690 5691 5691 5692 5693 5693 5693 5694 5695 5695 5695 5695 5696 5696 5696 5696 5696 5696 5696 5695 5695 5694 5693 5693
5688 5688 5687 5687 5687 5687 5686 5686 5686 5685 5684 5684 5683 5683 5683 5682 5682 5682 5682 5682 5683 5683 5684 5684 5685 5686 5686 5687 5687 5688 5688 5688 5689 5689 5689 5689 5689 5688 5688 5688 5687 5686 5685 5685
5682 5682 5682 5681 5681 5680 5680 5679 5679 5678 5677 5676 5676 5676 5675 5675 5675 5675 5676 5676 5676 5676 5677 5677 5678 5678 5679 5680 5680 5681 5681 5681 5681 5682 5682 5682 5682 5681 5681 5680 5679 5679 5678 5678
5676 5676 5675 5675 5674 5674 5673 5673 5672 5672 5671 5670 5669 5669 5668 5668 5668 5668 5669 5669 5669 5670 5670 5670 5671 5672 5672 5673 5673 5674 5674 5674 5675 5675 5675 5675 5675 5674 5674 5673 5673 5672 5671 5670
5670 5670 5669 5669 5668 5667 5667 5666 5665 5665 5664 5663 5663 5662 5662 5662 5661 5661 5661 5662 5663 5663 5664 5664 5664 5665 5666 5666 5667 5667 5668 5668 5668 5668 5668 5668 5668 5668 5667 5667 5666 5665 5664 5663
5664 5664 5663 5663 5662 5661 5661 5660 5659 5658 5657 5656 5656 5655 5655 5655 5654 5654 5654 5655 5656 5656 5657 5657 5658 5659 5660 5660 5661 5661 5661 5662 5662 5662 5662 5662 5661 5661 5661 5660 5659 5659 5658 5657
5658 5658 5658 5657 5656 5655 5654 5653 5652 5651 5650 5649 5649 5649 5648 5648 5648 5648 5648 5649 5650 5650 5651 5651 5652 5653 5653 5654 5654 5655 5655 5655 5656 5656 5655 5655 5655 5654 5654 5653 5653 5652 5651 5650
5653 5652 5652 5651 5650 5649 5648 5647 5646 5645 5644 5643 5642 5642 5642 5642 5641 5642 5642 5643 5644 5644 5645 5646 5646 5647 5647 5647 5648 5648 5649 5649 5649 5649 5649 5649 5648 5648 5647 5647 5646 5645 5644 5643
5647 5647 5646 5645 5645 5644 5642 5641 5640 5638 5637 5636 5636 5635 5635 5635 5635 5635 5636 5637 5637 5638 5639 5639 5640 5640 5641 5641 5642 5642 5642 5643 5643 5643 5642 5642 5642 5641 5641 5640 5639 5638 5637 5636
5642 5641 5640 5640 5639 5638 5637 5635 5634 5632 5631 5630 5629 5629 5629 5629 5629 5629 5629 5630 5631 5632 5632 5633 5634 5634 5635 5635 5636 5636 5636 5636 5636 5636 5636 5636 5635 5635 5634 5633 5633 5632 5631 5630
5637 5636 5635 5634 5633 5632 5631 5629 5628 5627 5625 5624 5624 5623 5622 5623 5623 5623 5623 5624 5625 5626 5626 5627 5628 5628 5628 5629 5629 5629 5629 5629 5629 5630 5629 5629 5629 5628 5628 5627 5626 5625 5624 5623
5632 5631 5629 5628 5627 5626 5625 5624 5622 5621 5620 5619 5618 5617 5617 5617 5618 5618 5618 5619 5619 5620 5621 5621 5621 5622 5622 5623 5623 5623 5623 5623 5623 5623 5623 5623 5623 5622 5621 5620 5619 5618 5617 5616
5627 5626 5625 5623 5622 5621 5619 5618 5617 5616 5615 5614 5613 5613 5612 5612 5612 5613 5613 5614 5614 5615 5615 5615 5616 5616 5616 5617 5617 5617 5617 5617 5617 5617 5617 5617 5616 5615 5614 5613 5612 5611 5610 5609